Location: Bougarber
(43.4000°N, 0.4667°W)
Time: 14:28:49
(UTC+00:00)

Daily predictions for brighter satellites

Satellite Brightness Start Highest point End
(mag) Time Altitude Azimuth Time Altitude Azimuth Time Altitude Azimuth
Resurs 01 Rocket 1.8 20:11:56 10° SSE 20:16:18 59° ENE 20:20:41 10° N
COSMOS 2406 4.3 20:14:08 10° SSE 20:18:46 26° ESE 20:23:25 10° NE
Cosmos 1833 Rocket 2.9 20:18:51 10° S 20:24:11 48° ESE 20:29:35 10° NE
H-2A R/B 2.1 20:23:02 10° NNE 20:27:32 80° ESE 20:32:02 10° S
Cosmos 1536 Rocket 3.8 20:26:13 10° S 20:30:24 51° E 20:34:39 10° NNE
Cosmos 1703 3.8 20:28:02 10° SSE 20:31:35 37° E 20:35:10 10° NNE
CARTOSAT-1 4.1 20:29:32 10° SE 20:33:36 42° ENE 20:37:41 10° N
Cosmos 1741 Rocket 4.2 20:29:28 10° NNW 20:34:46 62° ENE 20:40:02 10° SSE
USA 245 4.2 20:32:02 10° SE 20:35:26 29° ENE 20:38:18 10° NNE
Ariane Rocket 3.1 20:32:33 10° SSE 20:37:36 69° ENE 20:42:41 10° N
PSLV R/B 4.1 20:38:50 10° N 20:43:00 77° WNW 20:47:10 10° SSW
IRS-1A Rocket 4.5 20:37:48 10° SSE 20:43:43 83° WSW 20:49:36 10° NNW
CZ-4B R/B 0.9 20:44:11 10° NNE 20:47:05 89° WNW 20:49:59 10° SSW
Terra 3.2 20:44:04 11° ESE 20:47:40 24° ENE 20:51:27 10° NNE
SPOT 3 Rocket 3.8 20:44:20 11° SSE 20:49:14 57° ENE 20:54:22 10° N
ATLAS 2AS CENTAUR R/B 3.6 20:43:17 10° NW 20:49:45 42° WSW 20:55:51 10° S
SPOT 5 3.6 20:46:56 13° SE 20:50:18 33° ENE 20:54:10 10° N
USA 276 4.4 20:49:50 10° NW 20:52:19 22° N 20:54:48 10° ENE
RESURS DK-1 2.5 20:49:08 10° NNW 20:53:16 76° WSW 20:56:54 13° SSE
Cosmos 1544 Rocket 4.4 20:49:42 10° NNW 20:53:54 49° W 20:58:06 10° SSW
Cosmos 1271 Rocket 4.0 20:52:03 10° NNW 20:55:46 40° W 20:59:25 10° SSW
Cosmos 1455 3.3 20:52:25 10° NNW 20:56:04 43° W 20:59:42 10° SSW
SL-24 R/B 4.4 20:52:29 10° SSE 20:56:53 83° WSW 21:01:59 10° NNW
Cosmos 1850 Rocket 4.1 20:55:13 10° NNW 21:00:25 77° WSW 21:05:09 12° SSE
Cosmos 1331 Rocket 4.0 20:56:00 10° SSW 21:01:17 82° ESE 21:06:37 10° NNE
Cosmos 2082 Rocket 2.7 20:57:06 10° S 21:02:23 41° ESE 21:07:42 10° NE
IRAS Rocket 4.2 20:58:10 10° NNE 21:03:47 82° ESE 21:09:18 10° SSW
Cosmos 2074 Rocket 4.0 20:58:56 10° N 21:05:14 87° E 21:11:20 11° S
Cosmos 2360 4.2 21:01:41 10° NNW 21:07:28 81° ENE 21:11:58 17° SSE
Helios 1A Rocket 3.5 21:04:55 18° SE 21:07:36 43° ENE 21:11:31 10° N
Cosmos 1328 4.3 21:05:03 17° SSE 21:07:52 42° E 21:11:39 10° NNE
Spot 2 Rocket 3.8 21:04:02 16° SE 21:07:58 55° ENE 21:12:58 10° N
Cosmos 2084 Rocket 3.4 21:07:22 10° NNW 21:11:16 65° NE 21:13:53 21° SE
Nadezhda 1 Rocket 3.9 21:07:05 10° S 21:13:05 68° E 21:19:07 10° NNE
GEOS 3 Rocket 3.9 21:09:16 15° SSE 21:13:23 58° SW 21:18:27 10° NW
Lacrosse 5 4.1 21:11:36 10° W 21:14:39 16° WSW 21:17:41 10° SSW
Cosmos 1900 4.4 21:10:11 10° NNW 21:15:22 83° WSW 21:18:57 20° SSE
Delta 2 Rocket 4.3 21:14:43 10° WSW 21:17:13 20° S 21:17:33 19° S
Cosmos 1295 Rocket 4.5 21:12:55 10° N 21:19:08 74° E 21:23:57 17° SSE
X-37B 0.7 21:22:08 10° W 21:24:50 45° SSW 21:25:27 37° SSE
ERS-1 Rocket 3.0 21:22:07 20° SSE 21:25:32 69° ENE 21:30:33 10° N
Cosmos 1892 3.7 21:26:26 25° ESE 21:27:25 28° E 21:30:42 10° NNE
Meteor 1-21 Rocket 4.3 21:24:18 10° SSW 21:29:53 80° W 21:35:38 10° N
Cosmos 1302 Rocket 3.9 21:28:12 10° SSW 21:33:23 76° ESE 21:38:36 10° NNE
Cosmos 2228 3.6 21:32:08 10° NNW 21:36:16 53° W 21:39:22 17° SSW
Cosmos 192 4.3 21:31:46 10° SSW 21:36:40 86° WNW 21:41:36 10° NNE
SL-8 R/B 4.3 21:32:36 10° WNW 21:37:08 42° SW 21:39:18 26° SSE
Cosmos 2154 Rocket 4.1 21:33:24 10° NNW 21:39:36 73° W 21:44:31 17° S
Cosmos 1892 Rocket 3.5 21:38:01 24° S 21:40:33 69° E 21:44:55 10° NNE
Cosmos 968 Rocket 3.5 21:38:26 10° NNW 21:43:40 79° ENE 21:46:30 28° SSE
Cosmos 1697 Rocket 3.3 21:40:45 10° NW 21:46:09 49° WSW 21:49:50 20° S
Cosmos 1980 Rocket 2.2 21:41:15 10° NNW 21:46:59 86° ENE 21:50:07 28° SSE
SL-16 R/B 3.6 21:44:41 10° N 21:49:29 27° NE 21:52:57 16° E
Cosmos 1408 2.4 21:48:45 44° SSE 21:49:39 65° E 21:53:04 10° NNE
Cosmos 2058 Rocket 3.2 21:47:12 10° N 21:51:36 61° E 21:53:20 34° SE
ATLAS 5 CENTAUR R/B 1.1 21:50:51 30° SSW 21:52:28 61° ESE 21:56:26 10° NE
Resurs 01 Rocket 4.2 21:50:51 10° WSW 21:53:10 14° W 21:55:29 10° WNW
SL-8 Rocket 4.2 21:48:43 10° N 21:54:51 58° ENE 21:58:01 28° SSE
Cosmos 2369 3.8 21:49:41 10° NNW 21:55:25 74° WSW 21:58:31 28° S
CZ-2C R/B 3.8 21:51:08 10° N 21:55:41 76° WNW 21:58:48 19° SSW
USA 267 3.7 21:50:29 10° ENE 21:56:24 35° SE 21:59:31 23° S
In-Cosmos 22 Rocket 4.3 21:59:05 30° SSE 22:01:41 58° E 22:07:01 10° NNE
SJ 16-02 3.4 21:58:44 10° NNE 22:01:45 18° ENE 22:03:35 14° E
COSMOS 2406 4.1 21:57:10 10° SW 22:02:44 50° WNW 22:08:20 10° NNE
Cosmos 1825 2.4 22:08:00 46° ESE 22:08:20 48° E 22:11:58 10° NNE
Cosmos 1867 3.7 22:07:40 10° NW 22:13:06 68° WSW 22:15:18 36° S
Cosmos 2366 rocket 4.1 22:08:56 10° N 22:15:17 70° E 22:18:15 33° SSE
Cosmos 1869 3.5 22:14:00 10° N 22:17:51 54° E 22:18:25 49° ESE
Cosmos 2218 Rocket 4.0 22:15:19 10° N 22:21:46 79° E 22:24:42 35° SSE
ARIANE 5 R/B 3.1 22:21:46 34° SSW 22:23:23 53° W 22:27:43 10° NNW
Cosmos 2322 Rocket 3.3 22:18:30 10° N 22:23:42 35° NE 22:26:28 23° ESE
GP-B 3.0 22:20:39 10° N 22:25:06 85° W 22:26:26 45° S
Terra 2.8 22:22:57 25° SSW 22:25:11 39° W 22:29:40 10° NNW
Meteor 1-27 4.1 22:19:45 10° N 22:25:20 80° E 22:27:28 40° SSE
SPOT 5 4.5 22:26:10 15° SW 22:28:27 23° W 22:31:53 10° NW
USA 276 2.9 22:25:37 10° NW 22:28:33 44° NNE 22:28:42 44° NNE
SAR-Lupe-4 3.4 22:25:45 10° NNE 22:29:20 85° ESE 22:29:35 76° S
FALCON 9 DEB 3.1 22:27:26 10° NW 22:30:31 74° N 22:30:31 74° N
Cosmos 1959 Rocket 4.4 22:25:42 10° N 22:31:50 89° E 22:34:27 37° S
BREEZE-M DEB (TANK) 4.4 22:33:07 10° WNW 22:36:05 46° NNE 22:45:48 10° E
Cosmos 2278 3.8 22:31:38 10° NNW 22:37:19 65° WSW 22:39:18 40° S
Cosmos 1633 2.9 22:39:00 49° ENE 22:39:00 49° ENE 22:41:57 10° NNE
Cosmos 1992 Rocket 4.4 22:37:43 23° SW 22:40:57 62° WNW 22:46:11 10° NNE
Okean 1-7 Rocket 3.8 22:40:57 42° SSW 22:42:19 67° W 22:46:49 10° N
Cosmos 1758 Rocket 3.7 22:42:24 50° ESE 22:42:43 52° E 22:47:00 10° NNE
Cosmos 2333 Rocket 4.1 22:39:52 10° N 22:44:21 23° NE 22:48:06 13° E
Cosmos 2082 Rocket 3.8 22:41:27 10° WSW 22:46:32 33° NW 22:51:40 10° N
Cosmos 1486 Rocket 4.1 22:43:29 10° NNW 22:48:39 64° WSW 22:50:04 46° SSW
ASTEX 1 4.0 22:44:08 10° N 22:49:00 52° W 22:51:10 30° SW
Cosmos 1606 3.5 22:50:45 10° N 22:54:21 41° ENE 22:54:21 41° ENE
Cosmos-2242 3.0 22:50:39 10° N 22:54:51 62° E 22:55:10 60° ESE
Cosmos 1812 Rocket 3.4 22:51:09 10° N 22:55:39 81° E 22:56:09 68° SSE
ADEOS Rocket 3.9 22:53:13 30° SE 22:56:48 54° ENE 23:04:18 10° N
Cosmos 1340 Rocket 4.3 22:58:42 25° ENE 22:58:42 25° ENE 23:01:27 10° NE
Cosmos 2360 Rocket 3.0 22:52:51 10° NNW 22:58:15 42° ENE 23:00:31 29° ESE
Gbstr 26 Del rocket 2.9 22:59:00 68° ESE 22:59:00 68° ESE 23:03:31 10° ENE
Cosmos 1602 Rocket 3.7 23:05:35 55° SW 23:06:15 64° W 23:10:33 10° N
Cosmos 1821 Rocket 3.9 23:03:14 10° N 23:09:29 88° E 23:11:22 48° S
Cosmos 44 3.5 23:14:09 47° E 23:14:09 47° E 23:17:59 10° NE
Cosmos 1833 4.4 23:14:26 46° SE 23:15:00 48° ESE 23:20:21 10° NE
Cosmos 1354 Rocket 4.0 23:13:20 10° NNW 23:18:37 73° WSW 23:19:33 58° SSW
Cosmos 2237 4.1 23:15:22 10° NNW 23:21:08 89° WSW 23:22:30 55° SSE
ALOS 2 2.5 23:21:37 69° ESE 23:21:54 72° ENE 23:26:18 10° N
CENTAUR R/B 3.9 23:22:31 20° ESE 23:22:31 20° ESE 23:26:49 10° ENE
Spot 4 3.8 23:21:49 62° SSW 23:22:26 72° WSW 23:27:15 10° NNW
ERS-2 3.7 23:20:48 10° NE 23:22:56 25° ENE 23:22:56 25° ENE
Cosmos 1503 Rocket 4.4 23:21:59 10° NNW 23:27:04 49° WSW 23:27:51 45° SW
Cosmos 2058 2.8 23:29:58 87° N 23:29:58 87° N 23:34:06 10° N
Nadezhda 3 Rocket 4.0 23:28:02 45° SSW 23:30:02 76° W 23:36:14 10° N
Cosmos 1980 Rocket 4.3 23:27:28 10° WNW 23:30:08 14° W 23:31:53 12° WSW
COSMOS 2428 4.5 23:26:10 10° N 23:30:52 25° NE 23:34:37 14° E
Cosmos 1777 Rocket 3.9 23:26:59 10° NNW 23:32:17 84° WSW 23:33:07 64° S
H-2A R/B 3.4 23:28:32 10° NNE 23:32:45 85° WNW 23:32:48 84° W
Cosmos 1953 Rocket 3.6 23:33:04 65° E 23:33:04 65° E 23:37:26 10° NNE
SL-16 R/B 2.5 23:28:23 10° NW 23:33:51 50° WSW 23:34:48 45° SW
Cosmos 2219 Rocket 3.4 23:28:46 10° N 23:33:58 36° NE 23:36:41 23° ESE
ATLAS 5 CENTAUR R/B 4.1 23:34:51 10° WNW 23:37:27 17° NNW 23:40:19 10° N
USA 267 3.4 23:33:10 10° NE 23:39:41 71° NW 23:46:11 10° WSW
SJ 16-02 1.8 23:36:19 10° NNW 23:40:31 49° W 23:40:31 49° W
SL-4 R/B 2.8 23:40:05 38° NW 23:40:40 42° NNW 23:44:10 10° NE
Cosmos 1825 Rocket 3.6 23:41:10 62° W 23:41:22 63° W 23:45:41 10° N
Meteor 2-2 Rocket 4.3 23:36:38 10° N 23:42:42 88° W 23:44:11 54° S
Cosmos 2221 2.7 23:47:50 10° N 23:52:10 62° E 23:52:14 62° E
